| time (UTC) | temp F | wind direction | speed knots | gust knots | rain 1hr in | rain 24hr in | rain mn in | humidity % | barometer mb |
| 20260510192516 | 60 | 23 | 2.6 | 7.0 | 0.00 | 0.20 | 0.00 | 40 | 1018.6 |
| 20260510192057 | 59 | 315 | 3.5 | 7.8 | 0.00 | 0.20 | 0.00 | 41 | 1018.5 |
| 20260510191516 | 59 | 338 | 2.6 | 7.8 | 0.00 | 0.20 | 0.00 | 38 | 1018.6 |
| 20260510191016 | 59 | 68 | 4.3 | 8.7 | 0.00 | 0.20 | 0.00 | 43 | 1018.6 |
| 20260510190516 | 59 | 293 | 1.7 | 6.1 | 0.00 | 0.20 | 0.00 | 39 | 1018.6 |
| 20260510190016 | 59 | 293 | 3.5 | 12.2 | 0.00 | 0.20 | 0.00 | 43 | 1018.6 |
| 20260510185536 | 59 | 315 | 4.3 | 12.2 | 0.00 | 0.20 | 0.00 | 36 | 1018.3 |
| 20260510185017 | 58 | 315 | 3.5 | 8.7 | 0.00 | 0.20 | 0.00 | 41 | 1018.4 |
| 20260510184516 | 58 | 315 | 3.5 | 8.7 | 0.00 | 0.20 | 0.00 | 39 | 1018.3 |
| 20260510184016 | 58 | 315 | 4.3 | 8.7 | 0.00 | 0.20 | 0.00 | 39 | 1018.3 |
| 20260510183516 | 58 | 315 | 3.5 | 9.6 | 0.00 | 0.20 | 0.00 | 41 | 1018.3 |
| 20260510183016 | 59 | 45 | 3.5 | 10.4 | 0.00 | 0.20 | 0.00 | 41 | 1018.3 |
| 20260510182515 | 58 | 45 | 1.7 | 7.0 | 0.00 | 0.20 | 0.00 | 40 | 1018.0 |
| 20260510182015 | 58 | 293 | 3.5 | 7.8 | 0.00 | 0.20 | 0.00 | 48 | 1018.0 |
| 20260510181516 | 58 | 0 | 3.5 | 9.6 | 0.00 | 0.20 | 0.00 | 41 | 1017.9 |
| 20260510181015 | 58 | 293 | 3.5 | 7.8 | 0.00 | 0.20 | 0.00 | 40 | 1017.9 |
| 20260510180515 | 58 | 315 | 1.7 | 5.2 | 0.00 | 0.20 | 0.00 | 38 | 1017.9 |
| 20260510180036 | 58 | 293 | 3.5 | 7.8 | 0.00 | 0.20 | 0.00 | 41 | 1018.0 |
| 20260510175516 | 58 | 293 | 4.3 | 8.7 | 0.00 | 0.20 | 0.00 | 47 | 1018.1 |
| 20260510175036 | 58 | 315 | 3.5 | 8.7 | 0.00 | 0.20 | 0.00 | 45 | 1018.1 |
| 20260510174516 | 57 | 45 | 5.2 | 9.6 | 0.00 | 0.20 | 0.00 | 41 | 1018.0 |
| 20260510174015 | 58 | 293 | 1.7 | 3.5 | 0.00 | 0.20 | 0.00 | 41 | 1018.1 |
| 20260510173515 | 57 | 248 | 4.3 | 7.0 | 0.00 | 0.20 | 0.00 | 40 | 1018.1 |
| 20260510173015 | 57 | 293 | 5.2 | 10.4 | 0.00 | 0.20 | 0.00 | 39 | 1018.1 |
| 20260510172516 | 57 | 315 | 4.3 | 10.4 | 0.00 | 0.20 | 0.00 | 43 | 1018.2 |
| 20260510172015 | 57 | 315 | 3.5 | 8.7 | 0.00 | 0.20 | 0.00 | 46 | 1018.2 |
| 20260510171515 | 57 | 293 | 4.3 | 9.6 | 0.00 | 0.20 | 0.00 | 43 | 1018.2 |
| 20260510171016 | 57 | 315 | 3.5 | 8.7 | 0.00 | 0.20 | 0.00 | 49 | 1018.2 |
| 20260510170515 | 57 | 293 | 2.6 | 7.8 | 0.00 | 0.20 | 0.00 | 42 | 1018.3 |
| 20260510170016 | 57 | 293 | 3.5 | 7.8 | 0.00 | 0.20 | 0.00 | 42 | 1018.3 |
| 20260510165515 | 57 | 315 | 3.5 | 7.0 | 0.00 | 0.20 | 0.00 | 41 | 1018.2 |
| 20260510165016 | 57 | 23 | 3.5 | 9.6 | 0.00 | 0.20 | 0.00 | 41 | 1018.2 |
| 20260510164515 | 57 | 315 | 3.5 | 8.7 | 0.00 | 0.20 | 0.00 | 46 | 1018.2 |
| 20260510164016 | 57 | 315 | 4.3 | 9.6 | 0.00 | 0.20 | 0.00 | 46 | 1018.1 |
| 20260510163516 | 57 | 315 | 4.3 | 9.6 | 0.00 | 0.20 | 0.00 | 44 | 1018.1 |
| 20260510163016 | 56 | 315 | 4.3 | 8.7 | 0.00 | 0.20 | 0.00 | 46 | 1018.1 |
| 20260510162516 | 56 | 315 | 4.3 | 10.4 | 0.00 | 0.20 | 0.00 | 48 | 1018.0 |
| 20260510162016 | 56 | 315 | 5.2 | 9.6 | 0.00 | 0.20 | 0.00 | 43 | 1017.9 |
| 20260510161516 | 57 | 315 | 4.3 | 8.7 | 0.00 | 0.20 | 0.00 | 48 | 1018.0 |
| 20260510161016 | 56 | 315 | 0.9 | 3.5 | 0.00 | 0.20 | 0.00 | 51 | 1017.8 |
| 20260510160516 | 56 | 338 | 2.6 | 7.8 | 0.00 | 0.20 | 0.00 | 50 | 1017.8 |
| 20260510160018 | 55 | 315 | 3.5 | 9.6 | 0.00 | 0.20 | 0.00 | 53 | 1017.8 |
| 20260510155518 | 55 | 23 | 3.5 | 7.8 | 0.00 | 0.20 | 0.00 | 45 | 1017.8 |
| 20260510155017 | 55 | 315 | 2.6 | 9.6 | 0.00 | 0.20 | 0.00 | 44 | 1017.8 |
| 20260510154518 | 55 | 45 | 4.3 | 9.6 | 0.00 | 0.20 | 0.00 | 46 | 1017.8 |
| 20260510154018 | 55 | 338 | 3.5 | 9.6 | 0.00 | 0.20 | 0.00 | 49 | 1017.6 |
| 20260510153518 | 55 | 338 | 0.9 | 3.5 | 0.00 | 0.20 | 0.00 | 49 | 1017.6 |
| 20260510153018 | 54 | 0 | 2.6 | 7.8 | 0.00 | 0.20 | 0.00 | 47 | 1017.5 |
| 20260510152518 | 54 | 315 | 3.5 | 8.7 | 0.00 | 0.20 | 0.00 | 52 | 1017.5 |
| 20260510152018 | 54 | 315 | 4.3 | 10.4 | 0.00 | 0.20 | 0.00 | 49 | 1017.5 |
| 20260510151518 | 54 | 315 | 4.3 | 10.4 | 0.00 | 0.20 | 0.00 | 54 | 1017.4 |
| 20260510151017 | 54 | 23 | 2.6 | 7.8 | 0.00 | 0.20 | 0.00 | 55 | 1017.2 |
| 20260510150517 | 54 | 45 | 3.5 | 7.0 | 0.00 | 0.20 | 0.00 | 56 | 1017.2 |
| 20260510150017 | 53 | 45 | 3.5 | 7.8 | 0.00 | 0.20 | 0.00 | 53 | 1017.0 |
| 20260510145517 | 53 | 45 | 1.7 | 6.1 | 0.00 | 0.20 | 0.00 | 58 | 1017.0 |
| 20260510145038 | 52 | 45 | 2.6 | 7.0 | 0.00 | 0.20 | 0.00 | 58 | 1016.9 |
| 20260510144517 | 52 | 315 | 2.6 | 7.8 | 0.00 | 0.20 | 0.00 | 57 | 1016.9 |
| 20260510144017 | 52 | 68 | 1.7 | 5.2 | 0.00 | 0.20 | 0.00 | 60 | 1016.9 |
| 20260510143517 | 52 | 23 | 2.6 | 6.1 | 0.00 | 0.20 | 0.00 | 58 | 1016.8 |
| 20260510143017 | 52 | 315 | 2.6 | 7.8 | 0.00 | 0.20 | 0.00 | 59 | 1016.8 |
| 20260510142517 | 52 | 338 | 1.7 | 6.1 | 0.00 | 0.20 | 0.00 | 62 | 1016.7 |
| 20260510142017 | 52 | 45 | 3.5 | 7.0 | 0.00 | 0.20 | 0.00 | 61 | 1016.7 |
| 20260510141517 | 52 | 45 | 2.6 | 7.8 | 0.00 | 0.20 | 0.00 | 61 | 1016.6 |
| 20260510141017 | 52 | 45 | 3.5 | 8.7 | 0.00 | 0.20 | 0.00 | 66 | 1016.7 |
| 20260510140517 | 52 | 45 | 3.5 | 8.7 | 0.00 | 0.20 | 0.00 | 62 | 1016.6 |
| 20260510140017 | 51 | 68 | 2.6 | 7.8 | 0.00 | 0.20 | 0.00 | 63 | 1016.6 |
| 20260510135517 | 51 | 23 | 1.7 | 4.3 | 0.00 | 0.20 | 0.00 | 70 | 1016.6 |
| 20260510135057 | 51 | 315 | 2.6 | 7.0 | 0.00 | 0.20 | 0.00 | 69 | 1016.7 |
| 20260510134538 | 51 | 315 | 1.7 | 7.0 | 0.00 | 0.20 | 0.00 | 73 | 1016.6 |
| 20260510134017 | 51 | 293 | 2.6 | 7.0 | 0.00 | 0.20 | 0.00 | 71 | 1016.5 |
| 20260510133517 | 50 | 293 | 1.7 | 6.1 | 0.00 | 0.20 | 0.00 | 72 | 1016.3 |
| 20260510133017 | 50 | 45 | 1.7 | 5.2 | 0.00 | 0.20 | 0.00 | 78 | 1016.3 |
| 20260510132517 | 49 | 0 | 0.9 | 3.5 | 0.00 | 0.20 | 0.00 | 81 | 1016.1 |
| 20260510132017 | 48 | 338 | 1.7 | 7.0 | 0.00 | 0.20 | 0.00 | 79 | 1015.9 |
| 20260510131517 | 48 | 315 | 2.6 | 7.0 | 0.00 | 0.20 | 0.00 | 78 | 1016.0 |
| 20260510131017 | 48 | 315 | 1.7 | 5.2 | 0.00 | 0.20 | 0.00 | 80 | 1015.9 |
| 20260510130517 | 48 | 0 | 1.7 | 7.8 | 0.00 | 0.20 | 0.00 | 83 | 1015.8 |
| 20260510130017 | 48 | 0 | 1.7 | 5.2 | 0.00 | 0.20 | 0.00 | 81 | 1015.7 |
| 20260510125517 | 48 | 23 | 1.7 | 5.2 | 0.00 | 0.20 | 0.00 | 81 | 1015.5 |
| 20260510125017 | 48 | 68 | 0.9 | 2.6 | 0.00 | 0.20 | 0.00 | 81 | 1015.4 |
| 20260510124517 | 48 | 23 | 1.7 | 4.3 | 0.00 | 0.20 | 0.00 | 81 | 1015.4 |
| 20260510124017 | 48 | 315 | 0.9 | 2.6 | 0.00 | 0.20 | 0.00 | 81 | 1015.4 |
| 20260510123517 | 48 | 45 | 0.9 | 4.3 | 0.00 | 0.20 | 0.00 | 80 | 1015.3 |
| 20260510123017 | 48 | 0 | 0.9 | 3.5 | 0.00 | 0.20 | 0.00 | 80 | 1015.3 |
| 20260510122517 | 47 | 0 | 0.9 | 3.5 | 0.00 | 0.20 | 0.00 | 80 | 1015.0 |
| 20260510122018 | 47 | 68 | 1.7 | 5.2 | 0.00 | 0.20 | 0.00 | 81 | 1015.0 |
| 20260510121517 | 47 | 0 | 0.9 | 2.6 | 0.00 | 0.20 | 0.00 | 83 | 1014.9 |
| 20260510121058 | 47 | 23 | 0.9 | 2.6 | 0.00 | 0.20 | 0.00 | 82 | 1014.7 |
| 20260510120538 | 47 | 23 | 0.9 | 3.5 | 0.00 | 0.20 | 0.00 | 82 | 1014.6 |
| 20260510120038 | 47 | 45 | 1.7 | 5.2 | 0.00 | 0.20 | 0.00 | 82 | 1014.5 |
| 20260510115517 | 47 | 0 | 1.7 | 3.5 | 0.00 | 0.20 | 0.00 | 83 | 1014.4 |
| 20260510115037 | 47 | 23 | 2.6 | 11.3 | 0.00 | 0.20 | 0.00 | 83 | 1014.7 |
| 20260510114517 | 47 | 45 | 0.9 | 3.5 | 0.00 | 0.20 | 0.00 | 84 | 1014.4 |
| 20260510114057 | 47 | 0.0 | 1.7 | 0.00 | 0.20 | 0.00 | 84 | 1014.6 | |
| 20260510113517 | 47 | 45 | 0.9 | 3.5 | 0.00 | 0.20 | 0.00 | 84 | 1014.4 |
| 20260510113017 | 47 | 45 | 0.9 | 4.3 | 0.00 | 0.20 | 0.00 | 85 | 1014.4 |
| 20260510112517 | 47 | 23 | 0.9 | 2.6 | 0.00 | 0.20 | 0.00 | 85 | 1014.2 |
| 20260510112037 | 47 | 0.0 | 2.6 | 0.00 | 0.20 | 0.00 | 85 | 1014.2 | |
| 20260510111517 | 47 | 0.0 | 1.7 | 0.00 | 0.20 | 0.00 | 85 | 1014.1 | |
| 20260510111017 | 47 | 23 | 0.9 | 3.5 | 0.00 | 0.20 | 0.00 | 85 | 1013.9 |
| 20260510110538 | 46 | 23 | 0.9 | 3.5 | 0.00 | 0.20 | 0.00 | 85 | 1013.7 |
| 20260510110017 | 46 | 0.0 | 1.7 | 0.00 | 0.20 | 0.00 | 85 | 1013.7 | |
| 20260510105517 | 46 | 0.0 | 2.6 | 0.00 | 0.20 | 0.00 | 85 | 1013.7 | |
| 20260510105017 | 46 | 0.0 | 1.7 | 0.00 | 0.20 | 0.00 | 84 | 1013.5 | |
| 20260510104537 | 46 | 0.0 | 1.7 | 0.00 | 0.20 | 0.00 | 84 | 1013.5 | |
| 20260510104017 | 46 | 0.0 | 1.7 | 0.00 | 0.20 | 0.00 | 84 | 1013.3 | |
| 20260510103516 | 46 | 23 | 0.9 | 1.7 | 0.00 | 0.20 | 0.00 | 84 | 1013.2 |
| 20260510103037 | 46 | 0.0 | 1.7 | 0.00 | 0.20 | 0.00 | 83 | 1013.0 | |
| 20260510102516 | 46 | 0.0 | 0.9 | 0.00 | 0.20 | 0.00 | 83 | 1012.7 | |
| 20260510102017 | 46 | 0.0 | 1.7 | 0.00 | 0.20 | 0.00 | 83 | 1013.1 | |
| 20260510101516 | 45 | 0.0 | 0.0 | 0.00 | 0.20 | 0.00 | 83 | 1012.8 | |
| 20260510101017 | 45 | 0.0 | 0.9 | 0.00 | 0.20 | 0.00 | 83 | 1012.8 | |
| 20260510100517 | 45 | 0.0 | 3.5 | 0.00 | 0.21 | 0.00 | 83 | 1012.8 | |
| 20260510100017 | 45 | 0.0 | 0.9 | 0.00 | 0.21 | 0.00 | 84 | 1012.8 | |
| 20260510095537 | 45 | 0.0 | 0.0 | 0.00 | 0.22 | 0.00 | 84 | 1012.7 | |
| 20260510095017 | 45 | 0.0 | 1.7 | 0.00 | 0.22 | 0.00 | 84 | 1012.8 | |
| 20260510094517 | 45 | 0.0 | 0.9 | 0.00 | 0.22 | 0.00 | 84 | 1012.8 | |
| 20260510094017 | 45 | 0.0 | 0.0 | 0.00 | 0.22 | 0.00 | 84 | 1012.6 | |
| 20260510093517 | 45 | 0.0 | 0.0 | 0.00 | 0.22 | 0.00 | 84 | 1012.6 | |
| 20260510093017 | 45 | 0.0 | 1.7 | 0.00 | 0.22 | 0.00 | 83 | 1012.4 | |
| 20260510092517 | 45 | 0.0 | 0.0 | 0.00 | 0.22 | 0.00 | 83 | 1012.3 | |
| 20260510092017 | 46 | 0.0 | 0.0 | 0.00 | 0.22 | 0.00 | 83 | 1012.3 | |
| 20260510091517 | 46 | 0.0 | 0.0 | 0.00 | 0.22 | 0.00 | 83 | 1012.3 | |
| 20260510091016 | 46 | 0.0 | 1.7 | 0.00 | 0.22 | 0.00 | 83 | 1012.1 | |
| 20260510090517 | 46 | 0.0 | 0.0 | 0.00 | 0.22 | 0.00 | 81 | 1011.9 | |
| 20260510090037 | 46 | 0.0 | 1.7 | 0.00 | 0.22 | 0.00 | 80 | 1011.8 | |
| 20260510085517 | 47 | 0.0 | 1.7 | 0.00 | 0.22 | 0.00 | 81 | 1011.8 | |
| 20260510085017 | 47 | 68 | 0.9 | 2.6 | 0.00 | 0.22 | 0.00 | 80 | 1011.6 |
| 20260510084516 | 47 | 0.0 | 2.6 | 0.00 | 0.22 | 0.00 | 81 | 1011.5 | |
| 20260510084016 | 47 | 45 | 0.9 | 3.5 | 0.00 | 0.22 | 0.00 | 82 | 1011.4 |
| 20260510083556 | 47 | 45 | 0.9 | 3.5 | 0.00 | 0.22 | 0.00 | 81 | 1011.3 |
| 20260510083017 | 47 | 45 | 0.9 | 4.3 | 0.00 | 0.22 | 0.00 | 82 | 1011.4 |
| 20260510082517 | 47 | 45 | 1.7 | 3.5 | 0.00 | 0.22 | 0.00 | 82 | 1011.2 |
| 20260510082016 | 48 | 23 | 0.9 | 1.7 | 0.00 | 0.22 | 0.00 | 82 | 1011.3 |
| 20260510081516 | 48 | 0.0 | 2.6 | 0.00 | 0.22 | 0.00 | 83 | 1011.4 | |
| 20260510081037 | 48 | 23 | 0.9 | 3.5 | 0.00 | 0.22 | 0.00 | 83 | 1011.3 |
| 20260510080557 | 48 | 315 | 0.9 | 3.5 | 0.00 | 0.22 | 0.00 | 83 | 1011.4 |
| 20260510080017 | 49 | 315 | 0.9 | 4.3 | 0.00 | 0.22 | 0.00 | 85 | 1011.2 |
| 20260510075517 | 49 | 315 | 0.9 | 3.5 | 0.00 | 0.22 | 0.00 | 85 | 1011.3 |
| 20260510075017 | 49 | 68 | 0.9 | 3.5 | 0.00 | 0.22 | 0.00 | 85 | 1011.2 |
| 20260510074516 | 50 | 23 | 1.7 | 7.0 | 0.00 | 0.22 | 0.00 | 85 | 1010.9 |
| 20260510074017 | 50 | 23 | 0.9 | 3.5 | 0.00 | 0.22 | 0.00 | 87 | 1010.9 |
| 20260510073517 | 50 | 23 | 0.9 | 3.5 | 0.00 | 0.23 | 0.00 | 87 | 1010.9 |
| 20260510073016 | 50 | 315 | 1.7 | 3.5 | 0.00 | 0.24 | 0.00 | 88 | 1010.9 |
| 20260510072516 | 51 | 0 | 0.9 | 3.5 | 0.00 | 0.25 | 0.00 | 89 | 1010.9 |
| 20260510072016 | 51 | 0 | 0.9 | 3.5 | 0.00 | 0.27 | 0.00 | 90 | 1010.7 |
| 20260510071517 | 51 | 45 | 0.9 | 3.5 | 0.00 | 0.28 | 0.00 | 90 | 1010.6 |
| 20260510071016 | 51 | 338 | 0.9 | 3.5 | 0.00 | 0.29 | 0.00 | 90 | 1010.5 |
| 20260510070517 | 51 | 338 | 1.7 | 5.2 | 0.00 | 0.32 | 0.00 | 91 | 1010.4 |
| 20260510070037 | 51 | 338 | 0.9 | 4.3 | 0.00 | 0.32 | 0.00 | 92 | 1010.4 |
| 20260510065516 | 51 | 293 | 0.9 | 5.2 | 0.00 | 0.36 | 0.00 | 92 | 1010.2 |
| 20260510065016 | 51 | 0.0 | 1.7 | 0.00 | 0.39 | 0.00 | 92 | 1010.1 | |
| 20260510064517 | 51 | 270 | 1.7 | 3.5 | 0.00 | 0.40 | 0.00 | 92 | 1010.0 |
| 20260510064017 | 51 | 270 | 1.7 | 3.5 | 0.00 | 0.40 | 0.00 | 93 | 1009.9 |
| 20260510063517 | 50 | 270 | 0.9 | 2.6 | 0.00 | 0.40 | 0.00 | 91 | 1009.7 |
| 20260510063016 | 51 | 248 | 0.9 | 1.7 | 0.00 | 0.41 | 0.00 | 92 | 1009.9 |
| 20260510062516 | 51 | 0.0 | 1.7 | 0.00 | 0.41 | 0.00 | 92 | 1009.8 | |
| 20260510062036 | 51 | 0.0 | 0.9 | 0.00 | 0.42 | 0.00 | 91 | 1009.6 | |
| 20260510061516 | 51 | 0.0 | 1.7 | 0.00 | 0.42 | 0.00 | 91 | 1009.6 | |
| 20260510061037 | 51 | 0.0 | 0.0 | 0.00 | 0.43 | 0.00 | 91 | 1009.6 | |
| 20260510060517 | 52 | 0.0 | 0.9 | 0.00 | 0.45 | 0.00 | 91 | 1009.7 | |
| 20260510060017 | 52 | 248 | 0.9 | 1.7 | 0.00 | 0.45 | 0.00 | 91 | 1009.7 |
| 20260510055516 | 52 | 158 | 0.9 | 3.5 | 0.00 | 0.46 | 0.00 | 91 | 1009.7 |
| 20260510055037 | 52 | 0.0 | 1.7 | 0.00 | 0.46 | 0.00 | 91 | 1009.8 | |
| 20260510054516 | 52 | 0.0 | 1.7 | 0.00 | 0.46 | 0.00 | 91 | 1009.7 | |
| 20260510054017 | 52 | 158 | 0.9 | 2.6 | 0.00 | 0.47 | 0.00 | 90 | 1009.6 |
| 20260510053536 | 52 | 0.0 | 1.7 | 0.00 | 0.48 | 0.00 | 90 | 1009.5 | |
| 20260510053016 | 52 | 0.0 | 1.7 | 0.00 | 0.49 | 0.00 | 90 | 1009.5 | |
| 20260510052516 | 52 | 158 | 0.9 | 4.3 | 0.00 | 0.49 | 0.00 | 90 | 1009.3 |
| 20260510052016 | 52 | 158 | 0.9 | 5.2 | 0.00 | 0.49 | 0.00 | 90 | 1009.2 |
| 20260510051537 | 52 | 135 | 1.7 | 4.3 | 0.00 | 0.49 | 0.00 | 91 | 1009.3 |
| 20260510051017 | 52 | 180 | 1.7 | 4.3 | 0.00 | 0.50 | 0.00 | 90 | 1009.3 |
| 20260510050517 | 52 | 180 | 2.6 | 8.7 | 0.00 | 0.53 | 0.00 | 91 | 1009.3 |
| 20260510050016 | 52 | 158 | 1.7 | 5.2 | 0.00 | 0.56 | 0.00 | 91 | 1009.3 |
| 20260510045516 | 52 | 158 | 0.9 | 6.1 | 0.00 | 0.59 | 0.00 | 91 | 1009.0 |
| 20260510045016 | 52 | 135 | 0.9 | 6.1 | 0.00 | 0.63 | 0.00 | 91 | 1008.8 |
| 20260510044516 | 52 | 135 | 0.9 | 2.6 | 0.00 | 0.64 | 0.00 | 91 | 1008.8 |
| 20260510044016 | 51 | 135 | 0.9 | 3.5 | 0.00 | 0.64 | 0.00 | 91 | 1008.8 |
| 20260510043516 | 51 | 158 | 0.9 | 1.7 | 0.00 | 0.65 | 0.00 | 90 | 1008.8 |
| 20260510043016 | 52 | 158 | 0.9 | 1.7 | 0.00 | 0.65 | 0.00 | 90 | 1008.9 |
| 20260510042517 | 52 | 158 | 1.7 | 3.5 | 0.00 | 0.66 | 0.00 | 90 | 1008.8 |
| 20260510042016 | 52 | 158 | 0.9 | 1.7 | 0.00 | 0.66 | 0.00 | 90 | 1008.8 |
| 20260510041516 | 52 | 158 | 0.9 | 3.5 | 0.00 | 0.66 | 0.00 | 90 | 1008.8 |
| 20260510041016 | 52 | 158 | 1.7 | 3.5 | 0.00 | 0.66 | 0.00 | 90 | 1008.8 |
| 20260510040516 | 53 | 158 | 0.9 | 3.5 | 0.00 | 0.66 | 0.00 | 89 | 1008.9 |
| 20260510040016 | 53 | 0.0 | 1.7 | 0.00 | 0.67 | 0.67 | 89 | 1009.0 | |
| 20260510035556 | 53 | 158 | 0.9 | 1.7 | 0.00 | 0.68 | 0.67 | 89 | 1009.0 |
| 20260510035016 | 54 | 0.0 | 0.0 | 0.01 | 0.68 | 0.67 | 90 | 1008.9 | |
| 20260510034517 | 54 | 158 | 0.9 | 1.7 | 0.01 | 0.68 | 0.67 | 89 | 1008.8 |
| 20260510034016 | 54 | 158 | 2.6 | 5.2 | 0.01 | 0.68 | 0.67 | 89 | 1008.7 |
| 20260510033517 | 54 | 315 | 3.5 | 8.7 | 0.01 | 0.68 | 0.67 | 89 | 1009.1 |
| 20260510033017 | 54 | 315 | 0.9 | 5.2 | 0.01 | 0.68 | 0.67 | 90 | 1008.8 |
| 20260510032517 | 54 | 0.0 | 0.9 | 0.01 | 0.68 | 0.67 | 90 | 1008.3 | |
| 20260510032036 | 53 | 113 | 1.7 | 3.5 | 0.01 | 0.68 | 0.67 | 90 | 1008.2 |
| 20260510031516 | 53 | 158 | 1.7 | 3.5 | 0.01 | 0.68 | 0.67 | 91 | 1008.4 |
| 20260510031016 | 53 | 158 | 0.9 | 1.7 | 0.01 | 0.68 | 0.67 | 91 | 1008.6 |
| 20260510030516 | 53 | 0.0 | 1.7 | 0.01 | 0.69 | 0.67 | 90 | 1008.4 | |
| 20260510030016 | 53 | 0.0 | 1.7 | 0.01 | 0.69 | 0.67 | 90 | 1008.4 | |
| 20260510025516 | 53 | 0.0 | 1.7 | 0.01 | 0.69 | 0.67 | 91 | 1008.7 | |
| 20260510025016 | 53 | 0.0 | 2.6 | 0.00 | 0.68 | 0.66 | 91 | 1008.9 | |
| 20260510024516 | 53 | 0.0 | 0.9 | 0.00 | 0.68 | 0.66 | 91 | 1009.0 | |
| 20260510024017 | 53 | 180 | 0.9 | 1.7 | 0.00 | 0.68 | 0.66 | 91 | 1008.8 |
| 20260510023536 | 53 | 0.0 | 0.0 | 0.00 | 0.68 | 0.66 | 92 | 1008.8 | |
| 20260510023016 | 53 | 0.0 | 0.9 | 0.00 | 0.68 | 0.66 | 92 | 1008.7 | |
| 20260510022537 | 53 | 0.0 | 0.0 | 0.00 | 0.68 | 0.66 | 92 | 1008.5 | |
| 20260510022016 | 53 | 0.0 | 1.7 | 0.00 | 0.69 | 0.66 | 92 | 1008.2 | |
| 20260510021517 | 53 | 0.0 | 1.7 | 0.00 | 0.69 | 0.66 | 92 | 1008.0 | |
| 20260510021036 | 53 | 180 | 0.9 | 1.7 | 0.00 | 0.69 | 0.66 | 92 | 1007.9 |
| 20260510020517 | 53 | 0.0 | 1.7 | 0.00 | 0.70 | 0.66 | 92 | 1007.8 | |
| 20260510020016 | 53 | 0.0 | 1.7 | 0.00 | 0.70 | 0.66 | 92 | 1007.7 | |
| 20260510015516 | 53 | 0.0 | 0.0 | 0.00 | 0.70 | 0.66 | 92 | 1007.8 | |
| 20260510015017 | 53 | 0.0 | 0.0 | 0.00 | 0.70 | 0.66 | 92 | 1007.7 | |
| 20260510014557 | 53 | 0.0 | 0.0 | 0.00 | 0.71 | 0.66 | 91 | 1007.6 | |
| 20260510014017 | 53 | 0.0 | 0.0 | 0.00 | 0.71 | 0.66 | 91 | 1007.5 | |
| 20260510013536 | 53 | 0.0 | 0.0 | 0.00 | 0.71 | 0.66 | 90 | 1007.6 | |
| 20260510013016 | 53 | 0.0 | 0.0 | 0.00 | 0.71 | 0.66 | 90 | 1007.4 | |
| 20260510012516 | 53 | 0.0 | 0.0 | 0.00 | 0.72 | 0.66 | 90 | 1007.4 | |
| 20260510012056 | 53 | 0.0 | 0.0 | 0.00 | 0.72 | 0.66 | 90 | 1007.2 | |
| 20260510011516 | 53 | 0.0 | 0.0 | 0.00 | 0.72 | 0.66 | 90 | 1007.1 | |
| 20260510011056 | 53 | 0.0 | 0.0 | 0.00 | 0.72 | 0.66 | 89 | 1007.1 | |
| 20260510010537 | 53 | 0.0 | 1.7 | 0.00 | 0.73 | 0.66 | 89 | 1007.1 | |
| 20260510010016 | 54 | 0.0 | 1.7 | 0.01 | 0.73 | 0.66 | 90 | 1007.0 | |
| 20260510005537 | 54 | 0.0 | 1.7 | 0.02 | 0.73 | 0.66 | 90 | 1007.0 | |
| 20260510005016 | 54 | 180 | 1.7 | 4.3 | 0.03 | 0.73 | 0.66 | 89 | 1007.0 |
| 20260510004516 | 54 | 180 | 1.7 | 6.1 | 0.04 | 0.73 | 0.66 | 89 | 1007.2 |
| 20260510004016 | 54 | 203 | 0.9 | 3.5 | 0.05 | 0.74 | 0.66 | 89 | 1007.2 |
| 20260510003516 | 54 | 0.0 | 1.7 | 0.08 | 0.74 | 0.66 | 89 | 1007.3 | |
| 20260510003016 | 54 | 0.0 | 1.7 | 0.14 | 0.74 | 0.66 | 89 | 1007.2 | |
| 20260510002516 | 54 | 0.0 | 2.6 | 0.19 | 0.74 | 0.66 | 88 | 1007.2 | |
| 20260510002016 | 54 | 0.0 | 1.7 | 0.19 | 0.75 | 0.66 | 88 | 1007.1 | |
| 20260510001516 | 54 | 0.0 | 2.6 | 0.19 | 0.75 | 0.66 | 88 | 1007.2 | |
| 20260510001016 | 54 | 225 | 0.9 | 3.5 | 0.19 | 0.76 | 0.66 | 88 | 1007.4 |
| 20260510000516 | 54 | 248 | 4.3 | 13.0 | 0.19 | 0.76 | 0.66 | 87 | 1007.5 |
| 20260510000016 | 54 | 270 | 7.0 | 15.6 | 0.18 | 0.75 | 0.65 | 87 | 1007.3 |
| 20260509235516 | 54 | 293 | 6.1 | 10.4 | 0.17 | 0.75 | 0.63 | 87 | 1007.5 |
| 20260509235016 | 54 | 315 | 6.1 | 12.2 | 0.16 | 0.74 | 0.63 | 87 | 1007.4 |
| 20260509234516 | 54 | 293 | 7.0 | 13.9 | 0.15 | 0.74 | 0.62 | 86 | 1007.3 |
| 20260509234036 | 55 | 315 | 6.1 | 12.2 | 0.14 | 0.73 | 0.61 | 84 | 1007.3 |
| 20260509233516 | 55 | 315 | 9.6 | 18.2 | 0.11 | 0.71 | 0.58 | 82 | 1007.5 |
| 20260509233016 | 58 | 315 | 12.2 | 26.9 | 0.05 | 0.65 | 0.52 | 74 | 1007.3 |
| 20260509232536 | 64 | 270 | 10.4 | 25.2 | 0.00 | 0.61 | 0.47 | 61 | 1007.1 |
| 20260509232016 | 66 | 203 | 3.5 | 8.7 | 0.00 | 0.61 | 0.47 | 58 | 1006.1 |
| 20260509231536 | 66 | 203 | 2.6 | 7.8 | 0.00 | 0.61 | 0.47 | 57 | 1005.7 |
| 20260509231036 | 66 | 180 | 3.5 | 8.7 | 0.00 | 0.61 | 0.47 | 57 | 1005.6 |
| 20260509230516 | 66 | 203 | 4.3 | 13.9 | 0.00 | 0.61 | 0.47 | 58 | 1005.5 |
| 20260509230016 | 66 | 225 | 4.3 | 12.2 | 0.00 | 0.61 | 0.47 | 57 | 1005.4 |
| 20260509225516 | 66 | 203 | 3.5 | 11.3 | 0.00 | 0.61 | 0.47 | 57 | 1005.4 |
| 20260509225016 | 66 | 203 | 3.5 | 8.7 | 0.00 | 0.61 | 0.47 | 57 | 1005.4 |
| 20260509224516 | 66 | 180 | 4.3 | 13.0 | 0.00 | 0.62 | 0.47 | 57 | 1005.4 |
| 20260509224016 | 66 | 180 | 5.2 | 11.3 | 0.00 | 0.62 | 0.47 | 56 | 1005.3 |
| 20260509223536 | 67 | 203 | 6.1 | 16.5 | 0.00 | 0.62 | 0.47 | 56 | 1005.2 |
| 20260509223016 | 67 | 203 | 5.2 | 11.3 | 0.00 | 0.62 | 0.47 | 55 | 1005.2 |
| 20260509222616 | 66 | 203 | 4.3 | 9.6 | 0.00 | 0.62 | 0.47 | 56 | 1005.3 |
| 20260509222016 | 67 | 180 | 6.1 | 16.5 | 0.00 | 0.62 | 0.47 | 54 | 1005.4 |
| 20260509221516 | 67 | 203 | 5.2 | 14.8 | 0.00 | 0.62 | 0.47 | 53 | 1005.3 |
| 20260509221017 | 68 | 180 | 6.1 | 15.6 | 0.00 | 0.62 | 0.47 | 54 | 1005.3 |
| 20260509220516 | 68 | 180 | 6.1 | 17.4 | 0.00 | 0.62 | 0.47 | 54 | 1005.3 |
| 20260509220016 | 69 | 203 | 7.0 | 20.0 | 0.00 | 0.62 | 0.47 | 52 | 1005.4 |
| 20260509215516 | 69 | 180 | 4.3 | 14.8 | 0.00 | 0.62 | 0.47 | 54 | 1005.5 |
| 20260509215016 | 69 | 203 | 5.2 | 13.0 | 0.00 | 0.62 | 0.47 | 52 | 1005.5 |
| 20260509214516 | 69 | 203 | 5.2 | 15.6 | 0.00 | 0.62 | 0.47 | 55 | 1005.4 |
| 20260509214016 | 69 | 180 | 8.7 | 17.4 | 0.00 | 0.62 | 0.47 | 53 | 1005.3 |
| 20260509213536 | 69 | 180 | 4.3 | 11.3 | 0.00 | 0.62 | 0.47 | 55 | 1005.4 |
| 20260509213016 | 69 | 180 | 4.3 | 11.3 | 0.00 | 0.62 | 0.47 | 54 | 1005.4 |
| 20260509212516 | 69 | 203 | 5.2 | 12.2 | 0.00 | 0.62 | 0.47 | 53 | 1005.6 |
| 20260509212036 | 69 | 180 | 4.3 | 10.4 | 0.00 | 0.62 | 0.47 | 54 | 1005.6 |
| 20260509211516 | 68 | 203 | 5.2 | 13.0 | 0.00 | 0.62 | 0.47 | 52 | 1005.6 |
| 20260509211036 | 68 | 203 | 7.0 | 13.0 | 0.00 | 0.62 | 0.47 | 53 | 1005.8 |
| 20260509210515 | 68 | 203 | 6.1 | 15.6 | 0.00 | 0.62 | 0.47 | 55 | 1005.9 |
| 20260509210016 | 68 | 180 | 6.1 | 13.9 | 0.00 | 0.62 | 0.47 | 53 | 1006.0 |
| 20260509205516 | 68 | 180 | 7.8 | 17.4 | 0.00 | 0.62 | 0.47 | 53 | 1006.1 |
| 20260509205016 | 69 | 203 | 3.5 | 12.2 | 0.00 | 0.62 | 0.47 | 54 | 1006.2 |
| 20260509204516 | 69 | 180 | 5.2 | 18.2 | 0.00 | 0.62 | 0.47 | 57 | 1006.3 |
| 20260509204016 | 69 | 158 | 3.5 | 10.4 | 0.00 | 0.62 | 0.47 | 56 | 1006.2 |
| 20260509203516 | 68 | 180 | 2.6 | 8.7 | 0.00 | 0.62 | 0.47 | 56 | 1006.2 |
| 20260509203016 | 68 | 180 | 6.1 | 13.0 | 0.00 | 0.62 | 0.47 | 53 | 1006.3 |
| 20260509202515 | 68 | 203 | 4.3 | 12.2 | 0.00 | 0.62 | 0.47 | 58 | 1006.5 |
| 20260509202015 | 68 | 203 | 5.2 | 13.9 | 0.00 | 0.62 | 0.47 | 58 | 1006.5 |
| 20260509201516 | 68 | 180 | 5.2 | 11.3 | 0.00 | 0.62 | 0.47 | 56 | 1006.5 |
| 20260509201016 | 68 | 203 | 4.3 | 10.4 | 0.00 | 0.62 | 0.47 | 58 | 1006.7 |
| 20260509200516 | 68 | 203 | 6.1 | 15.6 | 0.00 | 0.63 | 0.47 | 55 | 1006.9 |
| 20260509200016 | 68 | 180 | 5.2 | 12.2 | 0.00 | 0.63 | 0.47 | 60 | 1007.1 |
| 20260509195516 | 68 | 180 | 4.3 | 10.4 | 0.00 | 0.64 | 0.47 | 60 | 1006.9 |
| 20260509195016 | 67 | 225 | 5.2 | 11.3 | 0.00 | 0.64 | 0.47 | 59 | 1006.9 |
| 20260509194536 | 67 | 203 | 7.0 | 15.6 | 0.00 | 0.64 | 0.47 | 57 | 1007.0 |
| 20260509194015 | 67 | 180 | 5.2 | 16.5 | 0.00 | 0.65 | 0.47 | 59 | 1006.9 |
| 20260509193516 | 67 | 203 | 5.2 | 12.2 | 0.00 | 0.66 | 0.47 | 61 | 1007.0 |
| 20260509193036 | 67 | 180 | 6.1 | 17.4 | 0.00 | 0.66 | 0.47 | 60 | 1007.2 |